Change the Weather History Date:

Saturday, January 5, 2008

  Actual Average Record
Temperature  
Mean Temperature 34 °F -  
Max Temperature 37 °F 30 °F 54 °F (1993)
Min Temperature 30 °F 14 °F -9 °F (1988)
Degree Days  
Heating Degree Days 32    
Moisture  
Dew Point 30 °F    
Average Humidity 85    
Maximum Humidity 100    
Minimum Humidity 64    
Precipitation  
Precipitation 0.00 in - - ()
Sea Level Pressure  
Sea Level Pressure 30.00 in    
Wind  
Wind Speed 9 mph (South)    
Max Wind Speed 14 mph    
Max Gust Speed 20 mph    
Visibility 6 miles    
Events Snow    
Averages and records for this station are not official NWS values.
T = Trace of Precipitation, MM = Missing Value Source: NWS Daily Summary

Daily Weather History Graph

Daily Weather History Graph

Search for Another Location

Airport or City:

Trip Planner

Search our weather history database for the weather conditions in past years. The results will help you decide how hot, cold, wet, or windy it might be!

Date:

Astronomy

Jan. 05, 2008 Rise Set
Actual Time 8:10 AM EST 5:25 PM EST
Civil Twilight 7:39 AM EST 5:56 PM EST
Nautical Twilight 7:04 AM EST 6:31 PM EST
Astronomical Twilight 6:30 AM EST 7:05 PM EST
Moon 6:05 AM EST 2:42 PM EST
Length of Visible Light 10h 17m
Length of Day
9h 14m
Waning Crescent, 7% of the Moon is Illuminated
Jan 5
Waning Crescent
Jan 8
New
Jan 15
First Quarter
Jan 22
Full
Jan 30
Last Quarter

Hourly Weather History & Observations

Time (EST) Temp. Windchill Dew Point Humidity Pressure Visibility Wind Dir Wind Speed Gust Speed Precip Events Conditions
12:14 AM 30.2 °F 21.9 °F 19.4 °F 64% 30.11 in 10.0 mi SSW 9.2 mph - N/A   Clear
12:34 AM 30.2 °F 21.9 °F 19.4 °F 64% 30.10 in 10.0 mi South 9.2 mph - N/A   Clear
12:55 AM 30.2 °F 21.9 °F 19.4 °F 64% 30.10 in 10.0 mi South 9.2 mph - N/A   Clear
1:14 AM 30.2 °F 22.6 °F 19.4 °F 64% 30.09 in 10.0 mi South 8.1 mph - N/A   Clear
1:34 AM 30.2 °F 22.6 °F 19.4 °F 64% 30.08 in 10.0 mi South 8.1 mph - N/A   Clear
1:55 AM 30.2 °F 22.6 °F 19.4 °F 64% 30.07 in 10.0 mi South 8.1 mph - N/A   Clear
2:14 AM 30.2 °F 21.9 °F 19.4 °F 64% 30.07 in 10.0 mi South 9.2 mph - N/A   Clear
2:34 AM 30.2 °F 22.6 °F 21.2 °F 69% 30.07 in 10.0 mi South 8.1 mph - N/A   Clear
2:55 AM 32.0 °F 24.8 °F 21.2 °F 64% 30.07 in 10.0 mi South 8.1 mph - N/A   Mostly Cloudy
3:14 AM 32.0 °F 25.6 °F 21.2 °F 64% 30.06 in 10.0 mi South 6.9 mph - N/A   Scattered Clouds
3:34 AM 32.0 °F 25.6 °F 21.2 °F 64% 30.05 in 10.0 mi South 6.9 mph - N/A   Mostly Cloudy
3:55 AM 32.0 °F 24.8 °F 21.2 °F 64% 30.05 in 10.0 mi South 8.1 mph - N/A   Mostly Cloudy
4:14 AM 32.0 °F 24.2 °F 23.0 °F 69% 30.04 in 10.0 mi South 9.2 mph - N/A   Overcast
4:34 AM 32.0 °F 24.2 °F 23.0 °F 69% 30.04 in 10.0 mi South 9.2 mph - N/A   Overcast
4:55 AM 32.0 °F 23.6 °F 23.0 °F 69% 30.04 in 10.0 mi South 10.4 mph - N/A   Overcast
5:14 AM 32.0 °F 24.2 °F 23.0 °F 69% 30.04 in 10.0 mi South 9.2 mph - N/A   Overcast
5:34 AM 32.0 °F 24.8 °F 23.0 °F 69% 30.04 in 10.0 mi South 8.1 mph - N/A   Overcast
5:55 AM 32.0 °F 25.6 °F 24.8 °F 75% 30.03 in 10.0 mi South 6.9 mph - N/A   Overcast
6:14 AM 32.0 °F 25.6 °F 24.8 °F 75% 30.03 in 10.0 mi South 6.9 mph - N/A   Overcast
6:34 AM 32.0 °F 24.8 °F 24.8 °F 75% 30.03 in 10.0 mi South 8.1 mph - N/A   Overcast
6:55 AM 32.0 °F 24.8 °F 26.6 °F 80% 30.03 in 10.0 mi South 8.1 mph - N/A   Overcast
7:14 AM 33.8 °F 27.0 °F 26.6 °F 75% 30.03 in 10.0 mi South 8.1 mph - N/A   Overcast
7:34 AM 33.8 °F 25.8 °F 28.4 °F 81% 30.02 in 5.0 mi South 10.4 mph - N/A Snow Light Snow
7:55 AM 33.8 °F 27.0 °F 30.2 °F 87% 30.02 in 7.0 mi South 8.1 mph - N/A Snow Light Snow
8:14 AM 33.8 °F 25.8 °F 32.0 °F 93% 30.02 in 5.0 mi South 10.4 mph - N/A   Overcast
8:34 AM 33.8 °F 26.4 °F 32.0 °F 93% 30.01 in 5.0 mi South 9.2 mph - N/A   Overcast
8:55 AM 33.8 °F 26.4 °F 32.0 °F 93% 30.01 in 7.0 mi South 9.2 mph - N/A   Overcast
9:14 AM 33.8 °F 27.0 °F 32.0 °F 93% 30.01 in 7.0 mi South 8.1 mph - N/A   Overcast
9:34 AM 33.8 °F 26.4 °F 32.0 °F 93% 30.01 in 7.0 mi South 9.2 mph - N/A   Overcast
9:55 AM 33.8 °F 27.7 °F 32.0 °F 93% 30.01 in 7.0 mi South 6.9 mph - N/A   Overcast
10:14 AM 33.8 °F 27.0 °F 32.0 °F 93% 30.01 in 3.0 mi South 8.1 mph - N/A   Drizzle
10:34 AM 33.8 °F 26.4 °F 32.0 °F 93% 30.01 in 10.0 mi South 9.2 mph - N/A   Overcast
10:55 AM 33.8 °F 25.8 °F 32.0 °F 93% 30.01 in 7.0 mi South 10.4 mph - N/A   Overcast
11:15 AM 35.6 °F 27.5 °F 33.8 °F 93% 30.00 in 5.0 mi South 11.5 mph - N/A   Overcast
11:34 AM 35.6 °F 28.0 °F 33.8 °F 93% 29.99 in 7.0 mi South 10.4 mph - N/A   Overcast
11:55 AM 35.6 °F 27.5 °F 33.8 °F 93% 29.98 in 5.0 mi South 11.5 mph - N/A   Overcast
12:15 PM 35.6 °F 27.1 °F 33.8 °F 93% 29.97 in 5.0 mi SSW 12.7 mph - N/A   Overcast
12:34 PM 35.6 °F 27.1 °F 35.6 °F 100% 29.97 in 5.0 mi SSW 12.7 mph - N/A   Overcast
12:55 PM 35.6 °F 26.6 °F 35.6 °F 100% 29.95 in 5.0 mi SSW 13.8 mph 19.6 mph N/A   Overcast
1:14 PM 35.6 °F 27.5 °F 35.6 °F 100% 29.95 in 5.0 mi SSW 11.5 mph - N/A   Overcast
1:34 PM 35.6 °F 28.0 °F 35.6 °F 100% 29.95 in 4.0 mi SSW 10.4 mph - N/A   Overcast
1:55 PM 37.4 °F 29.3 °F 35.6 °F 93% 29.94 in 4.0 mi SSW 12.7 mph - N/A   Overcast
2:14 PM 37.4 °F 29.3 °F 35.6 °F 93% 29.94 in 4.0 mi SSW 12.7 mph 17.3 mph N/A   Overcast
2:34 PM 37.4 °F 30.3 °F 35.6 °F 93% 29.94 in 3.0 mi SSW 10.4 mph - N/A   Overcast
2:55 PM 37.4 °F 29.8 °F 35.6 °F 93% 29.94 in 2.0 mi SSW 11.5 mph - N/A   Overcast
3:14 PM 35.6 °F 28.0 °F 35.6 °F 100% 29.93 in 1.5 mi SSW 10.4 mph - N/A   Overcast
3:34 PM 35.6 °F 27.5 °F 35.6 °F 100% 29.93 in 1.2 mi SSW 11.5 mph - N/A   Overcast
3:55 PM 35.6 °F 28.0 °F 35.6 °F 100% 29.93 in 1.0 mi SSW 10.4 mph - N/A   Overcast
4:15 PM 35.6 °F 29.2 °F 35.6 °F 100% 29.92 in 1.0 mi SSW 8.1 mph - N/A   Overcast
4:34 PM 35.6 °F 29.2 °F 35.6 °F 100% 29.92 in 1.0 mi SSW 8.1 mph - N/A   Overcast
4:55 PM 35.6 °F 27.5 °F 35.6 °F 100% 29.92 in 1.0 mi SSW 11.5 mph - N/A   Overcast
5:14 PM 35.6 °F 28.0 °F 35.6 °F 100% 29.92 in 1.2 mi SSW 10.4 mph - N/A   Overcast
5:34 PM 35.6 °F 28.0 °F 35.6 °F 100% 29.93 in 2.0 mi SSW 10.4 mph - N/A   Overcast
5:55 PM 35.6 °F 28.6 °F 35.6 °F 100% 29.94 in 3.0 mi SSW 9.2 mph - N/A   Overcast
6:15 PM 35.6 °F 27.5 °F 35.6 °F 100% 29.94 in 4.0 mi SSW 11.5 mph - N/A   Overcast
6:34 PM 35.6 °F 28.6 °F 35.6 °F 100% 29.94 in 4.0 mi SSW 9.2 mph - N/A   Overcast
6:55 PM 35.6 °F 27.5 °F 35.6 °F 100% 29.94 in 5.0 mi SSW 11.5 mph - N/A   Overcast
7:15 PM 37.4 °F 29.8 °F 35.6 °F 93% 29.94 in 5.0 mi SSW 11.5 mph - N/A   Overcast
7:34 PM 37.4 °F 30.3 °F 35.6 °F 93% 29.95 in 5.0 mi SSW 10.4 mph - N/A   Overcast
7:55 PM 35.6 °F 30.7 °F 35.6 °F 100% 29.95 in 5.0 mi South 5.8 mph - N/A   Overcast
8:14 PM 35.6 °F 29.9 °F 35.6 °F 100% 29.95 in 5.0 mi South 6.9 mph - N/A   Overcast
8:34 PM 35.6 °F 29.2 °F 35.6 °F 100% 29.94 in 5.0 mi South 8.1 mph - N/A   Overcast
8:55 PM 37.4 °F 30.8 °F 35.6 °F 93% 29.94 in 5.0 mi South 9.2 mph - N/A   Overcast
9:14 PM 37.4 °F 30.8 °F 35.6 °F 93% 29.94 in 5.0 mi South 9.2 mph - N/A   Overcast
9:34 PM 37.4 °F 30.8 °F 35.6 °F 93% 29.95 in 5.0 mi South 9.2 mph - N/A   Overcast
9:55 PM 35.6 °F 28.6 °F 35.6 °F 100% 29.95 in 4.0 mi South 9.2 mph - N/A   Overcast
10:14 PM 35.6 °F 29.2 °F 35.6 °F 100% 29.95 in 2.0 mi South 8.1 mph - N/A   Overcast
10:34 PM 35.6 °F 28.6 °F 35.6 °F 100% 29.95 in 1.0 mi South 9.2 mph - N/A   Overcast
10:55 PM 35.6 °F 29.2 °F 35.6 °F 100% 29.94 in 0.5 mi South 8.1 mph - N/A Fog Fog
11:14 PM 35.6 °F 29.2 °F 35.6 °F 100% 29.94 in 0.5 mi South 8.1 mph - N/A Fog Fog
11:34 PM 35.6 °F 29.2 °F 35.6 °F 100% 29.93 in 0.5 mi South 8.1 mph - N/A Fog Fog
11:55 PM 35.6 °F 29.2 °F 35.6 °F 100% 29.93 in 0.5 mi South 8.1 mph - N/A Fog Fog